Overview Statistics Trail Chart Weather Telemetry Raw packets
 

This is the latest recevied weather packets stored in our database for station/object IW2NIA-3. If no packets are shown the sender has not sent any weather packets the latest 10 day(s).

<< 8 9 10 11 12 13 14 >>
Time Temp. Humidity Pressure Rain* Wind** Luminosity Snow
1788447822 31.11° C 41% 1017.4 hPa 0 mm - - -
1788446927 31.11° C 43% 1017.5 hPa 0 mm - - -
1788446024 31.11° C 48% 1017.3 hPa 0 mm - - -
1788445125 31.11° C 46% 1017.6 hPa 0 mm - - -
1788444222 30.56° C 43% 1017.8 hPa 0 mm - - -
1788443320 30.56° C 47% 1018 hPa 0 mm - - -
1788442412 30° C 44% 1018 hPa 0 mm - - -
1788441524 30.56° C 39% 1018.2 hPa 0 mm - - -
1788440610 30.56° C 45% 1018.4 hPa 0 mm - - -
1788439728 30° C 43% 1018.5 hPa 0 mm - - -
1788438820 30° C 48% 1018.6 hPa 0 mm - - -
1788437945 30° C 47% 1018.8 hPa 0 mm - - -
1788437016 29.44° C 49% 1018.8 hPa 0 mm - - -
1788436111 28.89° C 54% 1019 hPa 0 mm - - -
1788435223 29.44° C 54% 1018.9 hPa 0 mm - - -
1788434318 28.89° C 59% 1018.9 hPa 0 mm - - -
1788433411 28.89° C 56% 1019 hPa 0 mm - - -
1788432514 28.33° C 56% 1019.2 hPa 0 mm - - -
1788431611 28.33° C 55% 1019.5 hPa 0 mm - - -
1788430727 27.78° C 58% 1019.6 hPa 0 mm - - -
1788429819 27.22° C 59% 1019.8 hPa 0 mm - - -
1788428922 27.22° C 59% 1019.8 hPa 0 mm - - -
1788428005 26.67° C 61% 1019.7 hPa 0 mm - - -
1788427119 26.67° C 58% 1019.8 hPa 0 mm - - -
1788426212 26.11° C 62% 1019.8 hPa 0 mm - - -

* Rain latest hour (hover to see other rain measurements)
** Current wind speed in m/s (hover to see current wind gust speed)